User: anonymous
Location: Eckley
(40.9930°N, 75.8630°W)
Time: 09:57:09
(UTC-04:00)
Language:

Cosmos 2221 Rocket - Orbit

View from above orbital plane
View from above orbital plane
View from above satellite
View from above satellite

Ground track
Ground track

The orbit data is extracted from the following two-line orbital elements,

1 22237U 92080B   14112.55211265  .00000611  00000-0  81708-4 0  3069
2 22237 082.5099 108.7190 0019880 015.2471 124.1464 14.77823541153310
Epoch (UTC): 22 April 2014 13:15:02
Eccentricity: 0.0019880
inclination: 82.5099°
perigee height: 622 km
apogee height: 650 km
right ascension of ascending node: 108.7190°
argument of perigee: 15.2471°
revolutions per day: 14.77823541
mean anomaly at epoch: 124.1464°
orbit number at epoch: 15331

The dashed part of the orbit path shows where the satellite is in the earth's shadow,  

DLR